Пирр

США     44°21′46″N   100°19′51″W
темп.,
°C
ветер,
м/с
пор.,
м/с
влажн.,
%
обл.,
%
осадки,
мм/ч
давл.,
гПа
погр.,
м
21 октября, чт
чт2101:000сз37775 0.0 1024178
04:00−1сз3683100 0.0 1025137
07:00−1ссз238334 0.0 102650
10:00+1ссз22665 0.0 1027243
13:00+6с00455 0.0 1025481
16:00+9ююв1138100 0.0 1022582
19:00+7вюв225296 0.0 102139
22:00+5юв336467 0.0 102142
22 октября, пт
пт2201:00+4юв346382 0.0 101968
04:00+4вюв34665 0.0 101864
07:00+3в477057 0.0 1017132
10:00+6юв475848 0.0 1017231
13:00+11вюв44445 0.0 1016628
16:00+13в45442 0.0 1014831
19:00+9в48610 0.0 1014146
22:00+6вюв410785 0.0 1015254
23 октября, сб
сб2301:00+5вюв5128090 0.0 1014289
04:00+5вюв61379100 0.0 1013341
07:00+5вюв71480100 0.0 1013411
10:00+6вюв81667100 0.0 1012533
13:00+12юв101348100 0.0 1009817
16:00+13юв81248100 0.0 1006987
19:00+11вюв101653100 0.0 1006582
22:00+10вюв91756100 0.0 1006551
24 октября, вс
вс2401:00+9вюв71361100 0.0 1006412
04:00+8вюв61265100 0.0 1006355
07:00+7вюв51168100 0.0 1006349
10:00+8в4665100 0.0 1008320
13:00+9в4463100 0.0 1008541
16:00+9св4468100 0.0 1009730
19:00+6всв5682100 0.0 1011440
22:00+5всв4585100 0.0 1013478
25 октября, пн
пн2501:00+5в468772 0.0 1014412
04:00+4вюв588294 0.0 1013481
07:00+3юв6985100 0.0 1013531
10:00+4юв81282100 0.0 1011543
13:00+8юв101369100 0.0 1007673
16:00+11юв91360100 0.0 1003885
19:00+9вюв91673100 0.0 1002681
22:00+8юв9187933 0.0 999579